AUA438W LOWI-EDDF

Flight info

Callsign AUA438W
Flight time N/A
Altitude 36000
Route KOGOL M726 ERNAS T161 DEBHI SPESA5B/25L
Aircraft A320/M-SDE3FGHIRWY/LB1

Departure

Time N/A
Airport Innsbruck Airport (LOWI)

Arrival

Time 2026-05-06 14:13
Airport Frankfurt Main Airport (EDDF)
Time Latitude Longitude Altitude Speed Heading
2026-05-06 13:55 49.72877 9.65065 32968 ft 464 kts 300°
2026-05-06 13:55 49.74700 9.60955 32611 ft 465 kts 300°
2026-05-06 13:55 49.76542 9.56795 31425 ft 471 kts 300°
2026-05-06 13:55 49.78420 9.52559 30452 ft 472 kts 301°
2026-05-06 13:56 49.80283 9.48350 29186 ft 476 kts 301°
2026-05-06 13:56 49.82138 9.44151 28594 ft 465 kts 301°
2026-05-06 13:56 49.83945 9.40056 27920 ft 457 kts 301°
2026-05-06 13:56 49.85616 9.35924 27235 ft 448 kts 294°
2026-05-06 13:57 49.86894 9.31561 26558 ft 441 kts 291°
2026-05-06 13:57 49.88495 9.27537 25912 ft 441 kts 308°
2026-05-06 13:57 49.90798 9.24420 25280 ft 441 kts 326°
2026-05-06 13:57 49.93601 9.22504 24676 ft 441 kts 344°
2026-05-06 13:58 49.96617 9.22035 24350 ft 432 kts
2026-05-06 13:58 49.99497 9.23012 24181 ft 419 kts 21°
2026-05-06 13:58 50.01969 9.25215 23741 ft 402 kts 40°
2026-05-06 13:58 50.03998 9.28080 23318 ft 386 kts 44°
2026-05-06 13:59 50.05893 9.30929 22827 ft 376 kts 44°
2026-05-06 13:59 50.07750 9.33781 22338 ft 374 kts 44°
2026-05-06 13:59 50.09556 9.36694 21852 ft 373 kts 52°
2026-05-06 13:59 50.10772 9.40210 21365 ft 369 kts 74°
2026-05-06 14:00 50.11111 9.44129 20901 ft 364 kts 96°
2026-05-06 14:00 50.10537 9.47899 20441 ft 356 kts 118°
2026-05-06 14:00 50.09153 9.51030 19898 ft 350 kts 139°
2026-05-06 14:00 50.07155 9.53115 19313 ft 346 kts 161°
2026-05-06 14:01 50.04824 9.53869 18730 ft 343 kts 182°
2026-05-06 14:01 50.02492 9.53193 18166 ft 343 kts 203°
2026-05-06 14:01 50.00497 9.51194 17498 ft 344 kts 224°
2026-05-06 14:01 49.99107 9.48148 16647 ft 342 kts 246°
2026-05-06 14:02 49.98586 9.44578 15846 ft 340 kts 268°
2026-05-06 14:02 49.98932 9.40973 15092 ft 337 kts 282°
2026-05-06 14:02 49.99565 9.37492 14426 ft 331 kts 284°
2026-05-06 14:02 50.00205 9.34093 13770 ft 325 kts 284°
2026-05-06 14:03 50.00841 9.30748 13069 ft 320 kts 284°
2026-05-06 14:03 50.01462 9.27460 12356 ft 315 kts 284°
2026-05-06 14:03 50.02073 9.24224 11662 ft 310 kts 284°
2026-05-06 14:03 50.02670 9.21036 10981 ft 305 kts 284°
2026-05-06 14:04 50.03253 9.17887 10313 ft 300 kts 284°
2026-05-06 14:04 50.03829 9.14789 9674 ft 295 kts 283°
2026-05-06 14:04 50.04049 9.11683 8960 ft 286 kts 261°
2026-05-06 14:04 50.03392 9.08841 8252 ft 278 kts 234°
2026-05-06 14:05 50.02537 9.07386 7799 ft 275 kts 217°
2026-05-06 14:05 50.00832 9.06093 7123 ft 272 kts 199°
2026-05-06 14:05 49.99193 9.04839 6734 ft 256 kts 221°
2026-05-06 14:05 49.98200 9.02646 6454 ft 241 kts 251°
2026-05-06 14:06 49.98120 9.00117 6306 ft 236 kts 283°
2026-05-06 14:06 49.98918 8.97914 6118 ft 239 kts 314°
2026-05-06 14:06 50.00379 8.96663 5910 ft 246 kts 346°
2026-05-06 14:06 50.02096 8.96560 5709 ft 250 kts
2026-05-06 14:07 50.03827 8.96795 5503 ft 249 kts
2026-05-06 14:07 50.05553 8.97073 5338 ft 249 kts
2026-05-06 14:07 50.07275 8.97341 5290 ft 248 kts
2026-05-06 14:07 50.08940 8.96888 5242 ft 243 kts 329°
2026-05-06 14:08 50.10180 8.95212 5187 ft 235 kts 298°
2026-05-06 14:08 50.10821 8.92897 5141 ft 233 kts 286°
2026-05-06 14:08 50.11302 8.90509 5085 ft 225 kts 284°
2026-05-06 14:08 50.11748 8.88248 5027 ft 212 kts 284°
2026-05-06 14:09 50.12045 8.86078 4929 ft 198 kts 268°
2026-05-06 14:09 50.11847 8.84006 4723 ft 191 kts 248°
2026-05-06 14:09 50.11388 8.82080 4477 ft 189 kts 248°
2026-05-06 14:09 50.10823 8.80229 4127 ft 192 kts 234°
2026-05-06 14:10 50.10042 8.78499 3694 ft 199 kts 241°
2026-05-06 14:10 50.09372 8.76576 3263 ft 205 kts 234°
2026-05-06 14:10 50.08461 8.74824 2835 ft 211 kts 232°
2026-05-06 14:10 50.07534 8.73026 2411 ft 215 kts 234°
2026-05-06 14:11 50.06870 8.70962 2082 ft 212 kts 251°
2026-05-06 14:11 50.06399 8.68819 1775 ft 206 kts 250°
2026-05-06 14:11 50.05929 8.66773 1509 ft 195 kts 250°
2026-05-06 14:11 50.05477 8.64856 1284 ft 181 kts 248°
2026-05-06 14:12 50.05057 8.63082 1013 ft 169 kts 248°
2026-05-06 14:12 50.04668 8.61445 785 ft 154 kts 246°
2026-05-06 14:12 50.04319 8.59977 582 ft 137 kts 249°
2026-05-06 14:12 50.03996 8.58620 393 ft 132 kts 247°
2026-05-06 14:13 50.03706 8.57416 362 ft 100 kts 250°
2026-05-06 14:13 50.03527 8.56644 353 ft 50 kts 250°
2026-05-06 14:13 50.03449 8.56304 351 ft 29 kts 253°
2026-05-06 14:13 50.03442 8.56006 348 ft 27 kts 280°
2026-05-06 14:14 50.03470 8.55769 347 ft 18 kts 283°
2026-05-06 14:14 50.03547 8.55726 347 ft 12 kts 42°
2026-05-06 14:14 50.03580 8.55845 355 ft 15 kts 70°
2026-05-06 14:14 50.03630 8.56050 356 ft 26 kts 69°
2026-05-06 14:15 50.03694 8.56324 356 ft 26 kts 70°
2026-05-06 14:15 50.03751 8.56561 360 ft 17 kts 69°
2026-05-06 14:15 50.03784 8.56697 358 ft 11 kts 69°
2026-05-06 14:15 50.03809 8.56799 355 ft 10 kts 69°
2026-05-06 14:16 50.03845 8.56950 354 ft 19 kts 70°
2026-05-06 14:16 50.03896 8.57170 365 ft 23 kts 70°
2026-05-06 14:16 50.03959 8.57424 366 ft 27 kts 68°
2026-05-06 14:16 50.04016 8.57665 368 ft 18 kts 69°
2026-05-06 14:17 50.04066 8.57876 366 ft 24 kts 69°
2026-05-06 14:17 50.04121 8.58088 369 ft 19 kts 60°
2026-05-06 14:17 50.04230 8.58199 366 ft 14 kts 16°
2026-05-06 14:17 50.04292 8.58199 366 ft 0 kts 346°
2026-05-06 14:21 50.04327 8.58180 368 ft 14 kts 340°
2026-05-06 14:21 50.04454 8.58107 365 ft 20 kts 340°
2026-05-06 14:21 50.04587 8.58030 364 ft 23 kts 339°
2026-05-06 14:22 50.04745 8.57938 361 ft 26 kts 340°
2026-05-06 14:22 50.04852 8.57822 358 ft 19 kts 292°
2026-05-06 14:22 50.04921 8.57770 361 ft 7 kts 30°
2026-05-06 14:22 50.04942 8.57784 359 ft 0 kts 21°